Abis Bremen — PCJO — position and weather

sailwx.info

Track history (hours):
 
Tides and Currents Weather Stations Pressure Air Temp Water Temp Dewpoint Dewpoint Depression Visibility Wind Speed Wind Dir Waves Ship Positions

Abis Bremen

Last reported at 2017-Mar-26 00:04 UTC. Time now 2017-Mar-27 06:53 UTC.
Position N 58°42' E 002°49'.

Length 90 m; draft 5.2 m.

Type: Ship. MMSI: 246778880.

Date/timePositionNaut miles runAvg speedWind from/ knotsBaromVisibWave heightAir tempDewpointWater temp
2017-Mar-26 00:04N 58°42' E 002°49'184 9.4
2017-Mar-25 04:33N 61°40' E 004°22'10 9.6
2017-Mar-25 03:33N 61°50' E 004°27'9 8.7
2017-Mar-25 02:33N 61°58' E 004°33'9 8.6
2017-Mar-25 01:32N 62°04' E 004°45'9 8.6
2017-Mar-25 00:33N 62°11' E 004°57'7 7.5
2017-Mar-24 23:33N 62°14' E 005°12'9 8.8
2017-Mar-24 22:33N 62°07' E 005°23'6 5.2
2017-Mar-24 21:28N 62°03' E 005°31'0 0.0
2017-Mar-24 20:31N 62°03' E 005°31'0 0.0
2017-Mar-24 19:28N 62°03' E 005°31'0 0.0
2017-Mar-24 18:31N 62°03' E 005°31'0 0.0
2017-Mar-24 17:31N 62°03' E 005°31'0 0.0
2017-Mar-24 16:31N 62°03' E 005°31'0 0.0
2017-Mar-24 15:31N 62°03' E 005°31'0 0.0
2017-Mar-24 14:31N 62°03' E 005°31'0 0.0
2017-Mar-24 13:28N 62°03' E 005°31'0 0.0
2017-Mar-24 12:31N 62°03' E 005°31'0 0.0
2017-Mar-24 11:28N 62°03' E 005°31'1 0.7
2017-Mar-24 10:32N 62°03' E 005°31'7 7.4
2017-Mar-24 09:33N 62°09' E 005°21'3 2.6
2017-Mar-24 08:33N 62°11' E 005°19'4 3.7
2017-Mar-24 07:33N 62°14' E 005°15'4 3.9
2017-Mar-24 06:33N 62°18' E 005°11'9 9.0
2017-Mar-24 05:33N 62°11' E 004°58'9 8.7
2017-Mar-24 04:33N 62°05' E 004°45'9 8.6
2017-Mar-24 03:33N 61°57' E 004°37'8 8.3
2017-Mar-24 02:33N 61°50' E 004°30'9 8.5
2017-Mar-24 01:33N 61°41' E 004°26'8 8.2
2017-Mar-24 00:33N 61°33' E 004°23'8 7.6
2017-Mar-23 23:33N 61°26' E 004°23'8 8.0
2017-Mar-23 22:33N 61°18' E 004°24'8 7.6
2017-Mar-23 21:33N 61°10' E 004°24'8 8.1
2017-Mar-23 20:33N 61°02' E 004°24'7 7.2
2017-Mar-23 19:32N 60°55' E 004°24'7 7.6
2017-Mar-23 18:34N 60°48' E 004°32'8 7.8
2017-Mar-23 17:33N 60°44' E 004°45'7 7.4
2017-Mar-23 16:33N 60°37' E 004°51'0 0.0
2017-Mar-23 15:09N 60°37' E 004°51'0 0.0
2017-Mar-23 14:33N 60°37' E 004°51'0 0.0
2017-Mar-23 13:33N 60°37' E 004°51'0 0.0
2017-Mar-23 12:33N 60°37' E 004°51'0 0.0
2017-Mar-23 11:33N 60°37' E 004°51'0 0.0
2017-Mar-23 10:33N 60°37' E 004°51'0 0.0
2017-Mar-23 09:33N 60°37' E 004°51'4 4.2
2017-Mar-23 08:33N 60°41' E 004°49'10 9.7
2017-Mar-23 07:34N 60°47' E 004°33'10 9.8
2017-Mar-23 06:32N 60°55' E 004°22'1110.7
2017-Mar-23 05:33N 61°06' E 004°21'1010.3
2017-Mar-23 04:34N 61°16' E 004°21'10 9.8
2017-Mar-23 03:33N 61°26' E 004°21'1110.6
2017-Mar-23 02:33N 61°37' E 004°22'1010.0
2017-Mar-23 01:33N 61°46' E 004°25'9 9.2
2017-Mar-23 00:33N 61°55' E 004°32'9 9.1
2017-Mar-22 23:33N 62°03' E 004°41'9 9.3
2017-Mar-22 22:33N 62°11' E 004°53'9 9.2
2017-Mar-22 21:33N 62°17' E 005°06'8 8.2
2017-Mar-22 20:33N 62°23' E 005°18'8 8.1
2017-Mar-22 19:33N 62°29' E 005°32'7 6.8
2017-Mar-22 18:33N 62°29' E 005°46'8 8.2
2017-Mar-22 17:33N 62°28' E 006°04'1110.8
2017-Mar-22 16:33N 62°37' E 006°18'1110.9
2017-Mar-22 15:33N 62°43' E 006°37'2 2.1
2017-Mar-22 14:31N 62°41' E 006°40'0 0.0
2017-Mar-22 13:31N 62°41' E 006°40'0 0.0
2017-Mar-22 12:31N 62°41' E 006°40'0 0.0
2017-Mar-22 11:31N 62°41' E 006°40'0 0.0
2017-Mar-22 10:31N 62°41' E 006°40'0 0.0
2017-Mar-22 09:31N 62°41' E 006°40'0 0.0
2017-Mar-22 08:31N 62°41' E 006°40'0 0.0
2017-Mar-22 07:31N 62°41' E 006°40'0 0.0
2017-Mar-22 06:31N 62°41' E 006°40'0 0.0
2017-Mar-22 05:31N 62°41' E 006°40'0 0.0
2017-Mar-22 04:31N 62°41' E 006°40'0 0.0
2017-Mar-22 03:31N 62°41' E 006°40'0 0.0
2017-Mar-22 02:10N 62°41' E 006°40'0 0.0
2017-Mar-22 01:31N 62°41' E 006°40'0 0.0
2017-Mar-22 00:31N 62°41' E 006°40'0 0.0
2017-Mar-21 23:31N 62°41' E 006°40'0 0.0
2017-Mar-21 22:31N 62°41' E 006°40'0 0.0
2017-Mar-21 21:31N 62°41' E 006°40'0 0.0
2017-Mar-21 20:31N 62°41' E 006°40'0 0.0
2017-Mar-21 19:31N 62°41' E 006°40'0 0.0
2017-Mar-21 18:28N 62°41' E 006°40'0 0.0
2017-Mar-21 17:31N 62°41' E 006°40'0 0.0
2017-Mar-21 16:31N 62°41' E 006°40'0 0.0
2017-Mar-21 15:31N 62°41' E 006°40'0 0.0
2017-Mar-21 14:31N 62°41' E 006°40'0 0.0
2017-Mar-21 13:31N 62°41' E 006°40'0 0.0
2017-Mar-21 12:31N 62°41' E 006°40'0 0.0
2017-Mar-21 11:31N 62°41' E 006°40'0 0.0
2017-Mar-21 10:31N 62°41' E 006°40'0 0.0
2017-Mar-21 09:31N 62°41' E 006°40'0 0.0
2017-Mar-21 08:31N 62°41' E 006°40'0 0.0
2017-Mar-21 07:31N 62°41' E 006°40'0 0.0
2017-Mar-21 06:31N 62°41' E 006°40'0 0.0
2017-Mar-21 05:31N 62°41' E 006°40'0 0.0
2017-Mar-21 04:31N 62°41' E 006°40'0 0.0
2017-Mar-21 03:31N 62°41' E 006°40'0 0.0
2017-Mar-21 02:31N 62°41' E 006°40'0 0.0
2017-Mar-21 01:31N 62°41' E 006°40'0 0.0
2017-Mar-21 00:31N 62°41' E 006°40'0 0.0
2017-Mar-20 23:28N 62°41' E 006°40'0 0.0
2017-Mar-20 22:31N 62°41' E 006°40'0 0.0
2017-Mar-20 21:31N 62°41' E 006°40'0 0.0
2017-Mar-20 20:31N 62°41' E 006°40'0 0.0
2017-Mar-20 19:31N 62°41' E 006°40'0 0.0
2017-Mar-20 18:31N 62°41' E 006°40'0 0.0
2017-Mar-20 17:31N 62°41' E 006°40'0 0.0
2017-Mar-20 16:31N 62°41' E 006°40'0 0.0
2017-Mar-20 15:31N 62°41' E 006°40'0 0.0
2017-Mar-20 14:31N 62°41' E 006°40'0 0.0
2017-Mar-20 13:25N 62°41' E 006°40'0 0.0
2017-Mar-20 12:31N 62°41' E 006°40'0 0.0
2017-Mar-20 11:31N 62°41' E 006°40'0 0.0
2017-Mar-20 10:28N 62°41' E 006°40'0 0.0
2017-Mar-20 09:33N 62°41' E 006°40'7 6.9
2017-Mar-20 08:33N 62°39' E 006°25'1211.7
2017-Mar-20 07:33N 62°30' E 006°09'9 8.5
2017-Mar-20 06:33N 62°28' E 005°51'9 8.9
2017-Mar-20 05:33N 62°29' E 005°32'1010.5
2017-Mar-20 04:33N 62°22' E 005°14'1010.5
2017-Mar-20 03:33N 62°14' E 004°59'1111.0
2017-Mar-20 02:33N 62°06' E 004°44'1111.1
2017-Mar-20 01:33N 61°58' E 004°28'27310.4
2017-Mar-18 23:15N 58°54' W 002°20'710.4
2017-Mar-18 22:33N 58°50' W 002°31'1110.6
2017-Mar-18 21:33N 58°43' W 002°48'1010.1
2017-Mar-18 20:33N 58°43' W 003°07'1110.8
2017-Mar-18 19:33N 58°42' W 003°28'1110.7
2017-Mar-18 18:33N 58°41' W 003°49'1111.1
2017-Mar-18 17:33N 58°41' W 004°10'1111.1
2017-Mar-18 16:33N 58°40' W 004°32'7610.2
2017-Mar-18 09:06N 57°38' W 005°54'711.6
2017-Mar-18 08:32N 57°31' W 005°54'1211.8
2017-Mar-18 07:29N 57°19' W 005°50'5 4.7
2017-Mar-18 06:29N 57°17' W 005°43'0 0.0
2017-Mar-18 05:31N 57°17' W 005°43'0 0.0
2017-Mar-18 04:31N 57°17' W 005°43'0 0.0
2017-Mar-18 03:28N 57°17' W 005°43'0 0.0
2017-Mar-18 02:32N 57°17' W 005°43'0 0.0
2017-Mar-18 01:26N 57°17' W 005°43'0 0.0
2017-Mar-18 00:32N 57°17' W 005°43'0 0.0
2017-Mar-17 23:32N 57°17' W 005°43'0 0.0
2017-Mar-17 22:29N 57°17' W 005°43'0 0.0
2017-Mar-17 21:32N 57°17' W 005°43'0 0.0
2017-Mar-17 20:31N 57°17' W 005°43'0 0.0
2017-Mar-17 19:32N 57°17' W 005°43'0 0.0
2017-Mar-17 18:29N 57°17' W 005°43'0 0.0
2017-Mar-17 17:32N 57°17' W 005°43'0 0.0
2017-Mar-17 16:32N 57°17' W 005°43'0 0.0
2017-Mar-17 15:26N 57°17' W 005°43'0 0.0
2017-Mar-17 14:29N 57°17' W 005°43'0 0.0
2017-Mar-17 13:29N 57°17' W 005°43'0 0.0
2017-Mar-17 12:29N 57°17' W 005°43'0 0.0
2017-Mar-17 11:26N 57°17' W 005°43'0 0.0
2017-Mar-17 10:11N 57°17' W 005°43'0 0.0
2017-Mar-17 09:29N 57°17' W 005°43'0 0.0
2017-Mar-17 08:32N 57°17' W 005°43'0 0.0
2017-Mar-17 07:20N 57°17' W 005°43'0 0.0
2017-Mar-17 06:26N 57°17' W 005°43'0 0.0
2017-Mar-17 05:32N 57°17' W 005°43'0 0.0
2017-Mar-17 04:29N 57°17' W 005°43'0 0.0
2017-Mar-17 03:26N 57°17' W 005°43'0 0.0
2017-Mar-17 02:29N 57°17' W 005°43'0 0.0
2017-Mar-17 01:32N 57°17' W 005°43'0 0.0
2017-Mar-17 00:29N 57°17' W 005°43'0 0.0
2017-Mar-16 23:30N 57°17' W 005°43'0 0.0
2017-Mar-16 21:05N 57°17' W 005°43'0 0.0
2017-Mar-16 18:11N 57°17' W 005°43'0 0.0
2017-Mar-16 17:32N 57°17' W 005°43'0 0.0
2017-Mar-16 16:20N 57°17' W 005°43'0 0.0
2017-Mar-16 15:29N 57°17' W 005°43'0 0.0
2017-Mar-16 14:29N 57°17' W 005°43'0 0.0
2017-Mar-16 13:26N 57°17' W 005°43'0 0.0
2017-Mar-16 12:23N 57°17' W 005°43'0 0.0
2017-Mar-16 11:23N 57°17' W 005°43'0 0.0
2017-Mar-16 10:32N 57°17' W 005°43'0 0.0
2017-Mar-16 09:14N 57°17' W 005°43'0 0.0
2017-Mar-16 08:23N 57°17' W 005°43'0 0.0
2017-Mar-16 07:17N 57°17' W 005°43'0 0.0
2017-Mar-16 06:23N 57°17' W 005°43'0 0.0
2017-Mar-16 05:14N 57°17' W 005°43'0 0.0
2017-Mar-16 04:29N 57°17' W 005°43'0 0.0
2017-Mar-16 03:29N 57°17' W 005°43'0 0.0
2017-Mar-16 02:23N 57°17' W 005°43'0 0.0
2017-Mar-16 01:29N 57°17' W 005°43'0 0.0
2017-Mar-16 00:32N 57°17' W 005°43'  
Track history (hours):
 
Tides and Currents Weather Stations Pressure Air Temp Water Temp Dewpoint Dewpoint Depression Visibility Wind Speed Wind Dir Waves Ship Positions

Abis Bremen

Last reported at 2017-Mar-26 00:04 UTC. Time now 2017-Mar-27 06:53 UTC.
Position N 58°42' E 002°49'.

Length 90 m; draft 5.2 m.

Type: Ship. MMSI: 246778880.

Date/timePositionNaut miles runAvg speedWind from/ knotsBaromVisibWave heightAir tempDewpointWater temp
2017-Mar-26 00:04N 58°42' E 002°49'184 9.4
2017-Mar-25 04:33N 61°40' E 004°22'10 9.6
2017-Mar-25 03:33N 61°50' E 004°27'9 8.7
2017-Mar-25 02:33N 61°58' E 004°33'9 8.6
2017-Mar-25 01:32N 62°04' E 004°45'9 8.6
2017-Mar-25 00:33N 62°11' E 004°57'7 7.5
2017-Mar-24 23:33N 62°14' E 005°12'9 8.8
2017-Mar-24 22:33N 62°07' E 005°23'6 5.2
2017-Mar-24 21:28N 62°03' E 005°31'0 0.0
2017-Mar-24 20:31N 62°03' E 005°31'0 0.0
2017-Mar-24 19:28N 62°03' E 005°31'0 0.0
2017-Mar-24 18:31N 62°03' E 005°31'0 0.0
2017-Mar-24 17:31N 62°03' E 005°31'0 0.0
2017-Mar-24 16:31N 62°03' E 005°31'0 0.0
2017-Mar-24 15:31N 62°03' E 005°31'0 0.0
2017-Mar-24 14:31N 62°03' E 005°31'0 0.0
2017-Mar-24 13:28N 62°03' E 005°31'0 0.0
2017-Mar-24 12:31N 62°03' E 005°31'0 0.0
2017-Mar-24 11:28N 62°03' E 005°31'1 0.7
2017-Mar-24 10:32N 62°03' E 005°31'7 7.4
2017-Mar-24 09:33N 62°09' E 005°21'3 2.6
2017-Mar-24 08:33N 62°11' E 005°19'4 3.7
2017-Mar-24 07:33N 62°14' E 005°15'4 3.9
2017-Mar-24 06:33N 62°18' E 005°11'9 9.0
2017-Mar-24 05:33N 62°11' E 004°58'9 8.7
2017-Mar-24 04:33N 62°05' E 004°45'9 8.6
2017-Mar-24 03:33N 61°57' E 004°37'8 8.3
2017-Mar-24 02:33N 61°50' E 004°30'9 8.5
2017-Mar-24 01:33N 61°41' E 004°26'8 8.2
2017-Mar-24 00:33N 61°33' E 004°23'8 7.6
2017-Mar-23 23:33N 61°26' E 004°23'8 8.0
2017-Mar-23 22:33N 61°18' E 004°24'8 7.6
2017-Mar-23 21:33N 61°10' E 004°24'8 8.1
2017-Mar-23 20:33N 61°02' E 004°24'7 7.2
2017-Mar-23 19:32N 60°55' E 004°24'7 7.6
2017-Mar-23 18:34N 60°48' E 004°32'8 7.8
2017-Mar-23 17:33N 60°44' E 004°45'7 7.4
2017-Mar-23 16:33N 60°37' E 004°51'0 0.0
2017-Mar-23 15:09N 60°37' E 004°51'0 0.0
2017-Mar-23 14:33N 60°37' E 004°51'0 0.0
2017-Mar-23 13:33N 60°37' E 004°51'0 0.0
2017-Mar-23 12:33N 60°37' E 004°51'0 0.0
2017-Mar-23 11:33N 60°37' E 004°51'0 0.0
2017-Mar-23 10:33N 60°37' E 004°51'0 0.0
2017-Mar-23 09:33N 60°37' E 004°51'4 4.2
2017-Mar-23 08:33N 60°41' E 004°49'10 9.7
2017-Mar-23 07:34N 60°47' E 004°33'10 9.8
2017-Mar-23 06:32N 60°55' E 004°22'1110.7
2017-Mar-23 05:33N 61°06' E 004°21'1010.3
2017-Mar-23 04:34N 61°16' E 004°21'10 9.8
2017-Mar-23 03:33N 61°26' E 004°21'1110.6
2017-Mar-23 02:33N 61°37' E 004°22'1010.0
2017-Mar-23 01:33N 61°46' E 004°25'9 9.2
2017-Mar-23 00:33N 61°55' E 004°32'9 9.1
2017-Mar-22 23:33N 62°03' E 004°41'9 9.3
2017-Mar-22 22:33N 62°11' E 004°53'9 9.2
2017-Mar-22 21:33N 62°17' E 005°06'8 8.2
2017-Mar-22 20:33N 62°23' E 005°18'8 8.1
2017-Mar-22 19:33N 62°29' E 005°32'7 6.8
2017-Mar-22 18:33N 62°29' E 005°46'8 8.2
2017-Mar-22 17:33N 62°28' E 006°04'1110.8
2017-Mar-22 16:33N 62°37' E 006°18'1110.9
2017-Mar-22 15:33N 62°43' E 006°37'2 2.1
2017-Mar-22 14:31N 62°41' E 006°40'0 0.0
2017-Mar-22 13:31N 62°41' E 006°40'0 0.0
2017-Mar-22 12:31N 62°41' E 006°40'0 0.0
2017-Mar-22 11:31N 62°41' E 006°40'0 0.0
2017-Mar-22 10:31N 62°41' E 006°40'0 0.0
2017-Mar-22 09:31N 62°41' E 006°40'0 0.0
2017-Mar-22 08:31N 62°41' E 006°40'0 0.0
2017-Mar-22 07:31N 62°41' E 006°40'0 0.0
2017-Mar-22 06:31N 62°41' E 006°40'0 0.0
2017-Mar-22 05:31N 62°41' E 006°40'0 0.0
2017-Mar-22 04:31N 62°41' E 006°40'0 0.0
2017-Mar-22 03:31N 62°41' E 006°40'0 0.0
2017-Mar-22 02:10N 62°41' E 006°40'0 0.0
2017-Mar-22 01:31N 62°41' E 006°40'0 0.0
2017-Mar-22 00:31N 62°41' E 006°40'0 0.0
2017-Mar-21 23:31N 62°41' E 006°40'0 0.0
2017-Mar-21 22:31N 62°41' E 006°40'0 0.0
2017-Mar-21 21:31N 62°41' E 006°40'0 0.0
2017-Mar-21 20:31N 62°41' E 006°40'0 0.0
2017-Mar-21 19:31N 62°41' E 006°40'0 0.0
2017-Mar-21 18:28N 62°41' E 006°40'0 0.0
2017-Mar-21 17:31N 62°41' E 006°40'0 0.0
2017-Mar-21 16:31N 62°41' E 006°40'0 0.0
2017-Mar-21 15:31N 62°41' E 006°40'0 0.0
2017-Mar-21 14:31N 62°41' E 006°40'0 0.0
2017-Mar-21 13:31N 62°41' E 006°40'0 0.0
2017-Mar-21 12:31N 62°41' E 006°40'0 0.0
2017-Mar-21 11:31N 62°41' E 006°40'0 0.0
2017-Mar-21 10:31N 62°41' E 006°40'0 0.0
2017-Mar-21 09:31N 62°41' E 006°40'0 0.0
2017-Mar-21 08:31N 62°41' E 006°40'0 0.0
2017-Mar-21 07:31N 62°41' E 006°40'0 0.0
2017-Mar-21 06:31N 62°41' E 006°40'0 0.0
2017-Mar-21 05:31N 62°41' E 006°40'0 0.0
2017-Mar-21 04:31N 62°41' E 006°40'0 0.0
2017-Mar-21 03:31N 62°41' E 006°40'0 0.0
2017-Mar-21 02:31N 62°41' E 006°40'0 0.0
2017-Mar-21 01:31N 62°41' E 006°40'0 0.0
2017-Mar-21 00:31N 62°41' E 006°40'0 0.0
2017-Mar-20 23:28N 62°41' E 006°40'0 0.0
2017-Mar-20 22:31N 62°41' E 006°40'0 0.0
2017-Mar-20 21:31N 62°41' E 006°40'0 0.0
2017-Mar-20 20:31N 62°41' E 006°40'0 0.0
2017-Mar-20 19:31N 62°41' E 006°40'0 0.0
2017-Mar-20 18:31N 62°41' E 006°40'0 0.0
2017-Mar-20 17:31N 62°41' E 006°40'0 0.0
2017-Mar-20 16:31N 62°41' E 006°40'0 0.0
2017-Mar-20 15:31N 62°41' E 006°40'0 0.0
2017-Mar-20 14:31N 62°41' E 006°40'0 0.0
2017-Mar-20 13:25N 62°41' E 006°40'0 0.0
2017-Mar-20 12:31N 62°41' E 006°40'0 0.0
2017-Mar-20 11:31N 62°41' E 006°40'0 0.0
2017-Mar-20 10:28N 62°41' E 006°40'0 0.0
2017-Mar-20 09:33N 62°41' E 006°40'7 6.9
2017-Mar-20 08:33N 62°39' E 006°25'1211.7
2017-Mar-20 07:33N 62°30' E 006°09'9 8.5
2017-Mar-20 06:33N 62°28' E 005°51'9 8.9
2017-Mar-20 05:33N 62°29' E 005°32'1010.5
2017-Mar-20 04:33N 62°22' E 005°14'1010.5
2017-Mar-20 03:33N 62°14' E 004°59'1111.0
2017-Mar-20 02:33N 62°06' E 004°44'1111.1
2017-Mar-20 01:33N 61°58' E 004°28'27310.4
2017-Mar-18 23:15N 58°54' W 002°20'710.4
2017-Mar-18 22:33N 58°50' W 002°31'1110.6
2017-Mar-18 21:33N 58°43' W 002°48'1010.1
2017-Mar-18 20:33N 58°43' W 003°07'1110.8
2017-Mar-18 19:33N 58°42' W 003°28'1110.7
2017-Mar-18 18:33N 58°41' W 003°49'1111.1
2017-Mar-18 17:33N 58°41' W 004°10'1111.1
2017-Mar-18 16:33N 58°40' W 004°32'7610.2
2017-Mar-18 09:06N 57°38' W 005°54'711.6
2017-Mar-18 08:32N 57°31' W 005°54'1211.8
2017-Mar-18 07:29N 57°19' W 005°50'5 4.7
2017-Mar-18 06:29N 57°17' W 005°43'0 0.0
2017-Mar-18 05:31N 57°17' W 005°43'0 0.0
2017-Mar-18 04:31N 57°17' W 005°43'0 0.0
2017-Mar-18 03:28N 57°17' W 005°43'0 0.0
2017-Mar-18 02:32N 57°17' W 005°43'0 0.0
2017-Mar-18 01:26N 57°17' W 005°43'0 0.0
2017-Mar-18 00:32N 57°17' W 005°43'0 0.0
2017-Mar-17 23:32N 57°17' W 005°43'0 0.0
2017-Mar-17 22:29N 57°17' W 005°43'0 0.0
2017-Mar-17 21:32N 57°17' W 005°43'0 0.0
2017-Mar-17 20:31N 57°17' W 005°43'0 0.0
2017-Mar-17 19:32N 57°17' W 005°43'0 0.0
2017-Mar-17 18:29N 57°17' W 005°43'0 0.0
2017-Mar-17 17:32N 57°17' W 005°43'0 0.0
2017-Mar-17 16:32N 57°17' W 005°43'0 0.0
2017-Mar-17 15:26N 57°17' W 005°43'0 0.0
2017-Mar-17 14:29N 57°17' W 005°43'0 0.0
2017-Mar-17 13:29N 57°17' W 005°43'0 0.0
2017-Mar-17 12:29N 57°17' W 005°43'0 0.0
2017-Mar-17 11:26N 57°17' W 005°43'0 0.0
2017-Mar-17 10:11N 57°17' W 005°43'0 0.0
2017-Mar-17 09:29N 57°17' W 005°43'0 0.0
2017-Mar-17 08:32N 57°17' W 005°43'0 0.0
2017-Mar-17 07:20N 57°17' W 005°43'0 0.0
2017-Mar-17 06:26N 57°17' W 005°43'0 0.0
2017-Mar-17 05:32N 57°17' W 005°43'0 0.0
2017-Mar-17 04:29N 57°17' W 005°43'0 0.0
2017-Mar-17 03:26N 57°17' W 005°43'0 0.0
2017-Mar-17 02:29N 57°17' W 005°43'0 0.0
2017-Mar-17 01:32N 57°17' W 005°43'0 0.0
2017-Mar-17 00:29N 57°17' W 005°43'0 0.0
2017-Mar-16 23:30N 57°17' W 005°43'0 0.0
2017-Mar-16 21:05N 57°17' W 005°43'0 0.0
2017-Mar-16 18:11N 57°17' W 005°43'0 0.0
2017-Mar-16 17:32N 57°17' W 005°43'0 0.0
2017-Mar-16 16:20N 57°17' W 005°43'0 0.0
2017-Mar-16 15:29N 57°17' W 005°43'0 0.0
2017-Mar-16 14:29N 57°17' W 005°43'0 0.0
2017-Mar-16 13:26N 57°17' W 005°43'0 0.0
2017-Mar-16 12:23N 57°17' W 005°43'0 0.0
2017-Mar-16 11:23N 57°17' W 005°43'0 0.0
2017-Mar-16 10:32N 57°17' W 005°43'0 0.0
2017-Mar-16 09:14N 57°17' W 005°43'0 0.0
2017-Mar-16 08:23N 57°17' W 005°43'0 0.0
2017-Mar-16 07:17N 57°17' W 005°43'0 0.0
2017-Mar-16 06:23N 57°17' W 005°43'0 0.0
2017-Mar-16 05:14N 57°17' W 005°43'0 0.0
2017-Mar-16 04:29N 57°17' W 005°43'0 0.0
2017-Mar-16 03:29N 57°17' W 005°43'0 0.0
2017-Mar-16 02:23N 57°17' W 005°43'0 0.0
2017-Mar-16 01:29N 57°17' W 005°43'0 0.0
2017-Mar-16 00:32N 57°17' W 005°43'  

Dump ship's entire track history